Location: Hawaiian Village Mobile Home Park
(32.8359°N, 116.9792°W)
Time: 03:43:01
(UTC+00:00)

ADEOS - Pass Details

Date: 06 December 2021
Orbit: 792 x 795 km, 98.9° (Epoch: 23 January)

Event Time Altitude Azimuth Distance (km) Brightness Sun altitude
Rises 11:54:56 0° 39° (NE) 3,297 7.2 -33.3°
Reaches altitude 10° 11:58:46 10° 68° (ENE) 2,361 6.7 -32.5°
Maximum altitude 12:00:57 13° 93° (E) 2,177 6.6 -32.0°
Drops below altitude 10° 12:03:09 10° 118° (ESE) 2,354 6.8 -31.6°
Sets 12:06:56 0° 147° (SSE) 3,277 7.3 -30.8°
